TERRA

Last updated on Thu Nov 21 2024 00:02:12 GMT+0000 (Coordinated Universal Time)

1 25994U 99068A 24325.63910469 .00000985 00000+0 21342-3 0 9991 2 25994 98.0293 24.4123 0001517 202.3622 319.0661 14.60241416325879
UTC large
Height (km)
Speed (km/s)
/
Latitude / Longitude
Inclination (degrees)
Orbital Period (minutes)
Azimuth
Elevation
Range (km)
Doppler Factor

Next 0 passes for location: London (51.5072 / 0.1276)

Sorry there are no passes over London.